Flag for United Kingdom Weather past 2 weeks in Bradford, England, United Kingdom

Now
48 °F

Clear.


Feels Like: 45 °F
Forecast: 38 / 64 °F
Wind: 7 mph from Northwest

Location: Leeds And Bradford

Current Time: Sep 21, 2014 at 6:06:56 AM

Latest Report: Sep 21, 2014 at 5:20 AM


Visibility: 10 mi

Pressure: 30.24 "Hg

Humidity: 94%

Dew point: 46 °F

Location of BradfordLocation

Historic Weather in Bradford — Graph

°F

Bradford temperature yesterday

Maximum temperature yesterday: 57 °F (at 12:20 AM)
Minimum temperature yesterday: 50 °F (at 11:20 PM)
Average temperature yesterday: 55 °F

Past Weeks' High & Low Weather Summary

 TemperatureHumidityPressure
High66 °F (Sep 18, 4:50 PM)100% (Sep 6, 4:20 AM)30.39 "Hg (Sep 6, 4:20 AM)
Low45 °F (Sep 7, 6:20 AM)49% (Sep 7, 2:50 PM)29.89 "Hg (Sep 18, 3:50 AM)
Average55 °F90%30.11 "Hg
* Reported Sep 6 4:20 AM — Sep 21 4:50 AM, Bradford, Weather by CustomWeather, © 2014

Note: Actual official high and low records may vary slightly from our data, if they occured in-between our weather recording intervals... More about our weather records

Advertising

Bradford weather history for previous 24 hours

 ConditionsComfort  
Time TempWeatherWind HumidityBarometerVisibility
4:50 AM
Sep 21
50 °FClear.8 mph94%30.21 "Hg10 mi
4:20 AM50 °FClear.8 mph94%30.21 "Hg10 mi
3:50 AM50 °FClear.6 mph94%30.21 "Hg10 mi
3:20 AM50 °FClear.5 mph94%30.21 "Hg10 mi
2:50 AM50 °FClear.3 mph94%30.21 "Hg10 mi
2:20 AM50 °FClear.1 mph94%30.21 "Hg10 mi
1:50 AM48 °FPassing clouds.No wind100%30.21 "HgN/A
1:20 AM46 °FPassing clouds.3 mph100%30.21 "HgN/A
12:50 AM48 °FPassing clouds.2 mph94%30.21 "HgN/A
12:20 AM50 °FPassing clouds.3 mph94%30.21 "HgN/A
11:20 PM
Sep 20
50 °FPassing clouds.7 mph94%30.21 "HgN/A
10:50 PM52 °FPassing clouds.7 mph94%30.18 "HgN/A
10:20 PM52 °FPassing clouds.7 mph94%30.18 "HgN/A
9:20 PM54 °FPassing clouds.7 mph88%30.18 "HgN/A
8:50 PM54 °FPassing clouds.8 mph88%30.15 "HgN/A
8:20 PM54 °FPassing clouds.7 mph94%30.15 "HgN/A
7:50 PM54 °FBroken clouds.8 mph88%30.15 "HgN/A
7:20 PM54 °FBroken clouds.10 mph88%30.15 "HgN/A
6:50 PM55 °FBroken clouds.12 mph88%30.12 "HgN/A
2:20 PM55 °FSleet. Broken clouds.7 mph100%30.07 "Hg5 mi
1:50 PM57 °FScattered showers. Broken clouds.6 mph94%30.07 "HgN/A
1:20 PM57 °FDrizzle. Broken clouds.8 mph94%30.07 "HgN/A
12:50 PM57 °FBroken clouds.6 mph94%30.07 "HgN/A
12:20 PM57 °FPartly sunny.7 mph94%30.07 "HgN/A
11:20 AM57 °FBroken clouds.6 mph94%30.07 "HgN/A
10:50 AM57 °FBroken clouds.8 mph94%30.04 "Hg4 mi
10:20 AM55 °FFog.5 mph100%30.04 "Hg2 mi
9:50 AM55 °FFog.5 mph100%30.04 "Hg2 mi
9:20 AM55 °FFog.6 mph100%30.04 "Hg2 mi
8:50 AM55 °FFog.5 mph100%30.01 "Hg1 mi
8:20 AM55 °FFog.6 mph100%30.01 "Hg1 mi
7:50 AM55 °FFog.3 mph100%30.01 "Hg1 mi
7:20 AM55 °FFog.3 mph100%30.01 "Hg1 mi
6:50 AM55 °FFog.3 mph100%30.01 "Hg1 mi
6:20 AM55 °FDrizzle. Fog.3 mph100%29.98 "Hg1 mi
Weather by CustomWeather, © 2014

See weather overviewHow to use our weather pages